Time,TemperatureF,DewpointF,PressureIn,WindDirection,WindDirectionDegrees,WindSpeedMPH,WindSpeedGustMPH,Humidity,HourlyPrecipIn,Conditions,Clouds,dailyrainin,SoftwareType,DateUTC
2013-07-13 00:32:00,58.0,55.0,-100.00,ENE,70,0.0,0.0,90,0.00,,,0.00,,2013-07-13 04:32:00,
2013-07-13 00:44:00,58.0,55.0,-100.00,ENE,70,0.0,0.0,90,0.00,,,0.00,,2013-07-13 04:44:00,
2013-07-13 00:52:00,58.0,55.0,-100.00,ENE,70,0.0,0.0,90,0.00,,,0.00,,2013-07-13 04:52:00,
2013-07-13 01:01:00,58.0,55.0,-100.00,ENE,70,0.0,0.0,90,0.00,,,0.00,,2013-07-13 05:01:00,
2013-07-13 01:02:00,57.0,55.0,-100.00,East,100,0.0,0.0,93,0.00,,,0.00,,2013-07-13 05:02:00,
2013-07-13 01:33:00,57.0,55.0,-100.00,East,100,0.0,0.0,93,0.00,,,0.00,,2013-07-13 05:33:00,
2013-07-13 01:42:00,57.0,55.0,-100.00,East,100,0.0,0.0,93,0.00,,,0.00,,2013-07-13 05:42:00,
2013-07-13 01:52:00,57.0,55.0,-100.00,East,100,0.0,0.0,93,0.00,,,0.00,,2013-07-13 05:52:00,
2013-07-13 02:02:00,58.0,56.0,-100.00,East,93,0.0,0.0,93,0.00,,,0.00,,2013-07-13 06:02:00,
2013-07-13 02:32:00,58.0,56.0,-100.00,East,93,0.0,0.0,93,0.00,,,0.00,,2013-07-13 06:32:00,
2013-07-13 02:43:00,58.0,56.0,-100.00,East,93,0.0,0.0,93,0.00,,,0.00,,2013-07-13 06:43:00,
2013-07-13 02:52:00,58.0,56.0,-100.00,East,93,0.0,0.0,93,0.00,,,0.00,,2013-07-13 06:52:00,
2013-07-13 03:02:00,59.0,57.0,-100.00,East,85,0.0,0.0,92,0.00,,,0.00,,2013-07-13 07:02:00,
2013-07-13 03:33:00,59.0,57.0,-100.00,East,85,0.0,0.0,92,0.00,,,0.00,,2013-07-13 07:33:00,
2013-07-13 03:44:00,59.0,57.0,-100.00,East,85,0.0,0.0,92,0.00,,,0.00,,2013-07-13 07:44:00,
2013-07-13 03:53:00,59.0,57.0,-100.00,East,85,0.0,0.0,92,0.00,,,0.00,,2013-07-13 07:53:00,
2013-07-13 04:02:00,60.0,57.0,-100.00,ENE,58,0.0,3.0,89,0.00,,,0.00,,2013-07-13 08:02:00,
2013-07-13 04:22:00,60.0,57.0,-100.00,ENE,58,0.0,3.0,89,0.00,,,0.00,,2013-07-13 08:22:00,
2013-07-13 04:33:00,60.0,57.0,-100.00,ENE,58,0.0,3.0,89,0.00,,,0.00,,2013-07-13 08:33:00,
2013-07-13 04:43:00,60.0,57.0,-100.00,ENE,58,0.0,3.0,89,0.00,,,0.00,,2013-07-13 08:43:00,
2013-07-13 04:52:00,60.0,57.0,-100.00,ENE,58,0.0,3.0,89,0.00,,,0.00,,2013-07-13 08:52:00,
2013-07-13 05:33:00,61.0,55.0,-100.00,NNE,27,0.0,5.0,82,0.00,,,0.00,,2013-07-13 09:33:00,
2013-07-13 05:43:00,61.0,55.0,-100.00,NNE,27,0.0,5.0,82,0.00,,,0.00,,2013-07-13 09:43:00,
2013-07-13 05:53:00,61.0,55.0,-100.00,NNE,27,0.0,5.0,82,0.00,,,0.00,,2013-07-13 09:53:00,
2013-07-13 06:01:00,61.0,55.0,-100.00,NNE,27,0.0,5.0,82,0.00,,,0.00,,2013-07-13 10:01:00,
2013-07-13 06:02:00,61.0,55.0,-100.00,NNE,19,1.0,4.0,81,0.00,,,0.00,,2013-07-13 10:02:00,
2013-07-13 06:32:00,61.0,55.0,-100.00,NNE,19,1.0,4.0,81,0.00,,,0.00,,2013-07-13 10:32:00,
2013-07-13 06:43:00,61.0,55.0,-100.00,NNE,19,1.0,4.0,81,0.00,,,0.00,,2013-07-13 10:43:00,
2013-07-13 06:52:00,61.0,55.0,-100.00,NNE,19,1.0,4.0,81,0.00,,,0.00,,2013-07-13 10:52:00,
2013-07-13 07:02:00,61.0,56.0,-100.00,SSE,159,0.0,3.0,85,0.00,,,0.00,,2013-07-13 11:02:00,
2013-07-13 07:32:00,61.0,56.0,-100.00,SSE,159,0.0,3.0,85,0.00,,,0.00,,2013-07-13 11:32:00,
2013-07-13 07:43:00,61.0,56.0,-100.00,SSE,159,0.0,3.0,85,0.00,,,0.00,,2013-07-13 11:43:00,
2013-07-13 07:52:00,61.0,56.0,-100.00,SSE,159,0.0,3.0,85,0.00,,,0.00,,2013-07-13 11:52:00,
2013-07-13 08:22:00,63.0,57.0,-100.00,South,185,0.0,3.0,82,0.00,,,0.00,,2013-07-13 12:22:00,
2013-07-13 08:32:00,63.0,57.0,-100.00,South,185,0.0,3.0,82,0.00,,,0.00,,2013-07-13 12:32:00,
2013-07-13 08:43:00,63.0,57.0,-100.00,South,185,0.0,3.0,82,0.00,,,0.00,,2013-07-13 12:43:00,
2013-07-13 08:52:00,63.0,57.0,-100.00,South,185,0.0,3.0,82,0.00,,,0.00,,2013-07-13 12:52:00,
2013-07-13 09:01:00,63.0,57.0,-100.00,South,185,0.0,3.0,82,0.00,,,0.00,,2013-07-13 13:01:00,
2013-07-13 09:02:00,67.0,55.0,-100.00,South,174,1.0,3.0,66,0.00,,,0.00,,2013-07-13 13:02:00,
2013-07-13 09:32:00,67.0,55.0,-100.00,South,174,1.0,3.0,66,0.00,,,0.00,,2013-07-13 13:32:00,
2013-07-13 09:43:00,67.0,55.0,-100.00,South,174,1.0,3.0,66,0.00,,,0.00,,2013-07-13 13:43:00,
2013-07-13 09:53:00,67.0,55.0,-100.00,South,174,1.0,3.0,66,0.00,,,0.00,,2013-07-13 13:53:00,
2013-07-13 10:02:00,68.0,55.0,-100.00,SE,134,1.0,7.0,64,0.00,,,0.00,,2013-07-13 14:02:00,
2013-07-13 10:33:00,68.0,55.0,-100.00,SE,134,1.0,7.0,64,0.00,,,0.00,,2013-07-13 14:33:00,
2013-07-13 10:44:00,68.0,55.0,-100.00,SE,134,1.0,7.0,64,0.00,,,0.00,,2013-07-13 14:44:00,
2013-07-13 10:53:00,68.0,55.0,-100.00,SE,134,1.0,7.0,64,0.00,,,0.00,,2013-07-13 14:53:00,
2013-07-13 11:02:00,67.0,59.0,-100.00,South,184,3.0,5.0,75,0.00,,,0.00,,2013-07-13 15:02:00,
2013-07-13 11:33:00,67.0,59.0,-100.00,South,184,3.0,5.0,75,0.00,,,0.00,,2013-07-13 15:33:00,
2013-07-13 11:43:00,67.0,59.0,-100.00,South,184,3.0,5.0,75,0.00,,,0.00,,2013-07-13 15:43:00,
2013-07-13 11:53:00,67.0,59.0,-100.00,South,184,3.0,5.0,75,0.00,,,0.00,,2013-07-13 15:53:00,
2013-07-13 12:33:00,68.0,60.0,-100.00,NE,55,0.0,4.0,75,0.00,,,0.00,,2013-07-13 16:33:00,
2013-07-13 12:43:00,68.0,60.0,-100.00,NE,55,0.0,4.0,75,0.00,,,0.00,,2013-07-13 16:43:00,
2013-07-13 12:53:00,68.0,60.0,-100.00,NE,55,0.0,4.0,75,0.00,,,0.00,,2013-07-13 16:53:00,
2013-07-13 13:01:00,68.0,60.0,-100.00,NE,55,0.0,4.0,75,0.00,,,0.00,,2013-07-13 17:01:00,
2013-07-13 13:02:00,69.0,61.0,-100.00,NW,318,2.0,6.0,75,0.00,,,0.00,,2013-07-13 17:02:00,
2013-07-13 13:22:00,69.0,61.0,-100.00,NW,318,2.0,6.0,75,0.00,,,0.00,,2013-07-13 17:22:00,
2013-07-13 13:33:00,69.0,61.0,-100.00,NW,318,2.0,6.0,75,0.00,,,0.00,,2013-07-13 17:33:00,
2013-07-13 13:43:00,69.0,61.0,-100.00,NW,318,2.0,6.0,75,0.00,,,0.00,,2013-07-13 17:43:00,
2013-07-13 13:52:00,69.0,61.0,-100.00,NW,318,2.0,6.0,75,0.00,,,0.00,,2013-07-13 17:52:00,
2013-07-13 14:02:00,68.0,61.0,-100.00,NW,326,3.0,6.0,79,0.00,,,0.00,,2013-07-13 18:02:00,
2013-07-13 14:22:00,68.0,61.0,-100.00,NW,326,3.0,6.0,79,0.00,,,0.00,,2013-07-13 18:22:00,
2013-07-13 14:32:00,68.0,61.0,-100.00,NW,326,3.0,6.0,79,0.00,,,0.00,,2013-07-13 18:32:00,
2013-07-13 14:44:00,68.0,61.0,-100.00,NW,326,3.0,6.0,79,0.00,,,0.00,,2013-07-13 18:44:00,
2013-07-13 14:53:00,68.0,61.0,-100.00,NW,326,3.0,6.0,79,0.00,,,0.00,,2013-07-13 18:53:00,
2013-07-13 15:22:00,67.0,64.0,-100.00,WSW,241,0.0,4.0,89,0.02,,,0.02,,2013-07-13 19:22:00,
2013-07-13 15:32:00,67.0,64.0,-100.00,WSW,241,0.0,4.0,89,0.02,,,0.02,,2013-07-13 19:32:00,
2013-07-13 15:44:00,67.0,64.0,-100.00,WSW,241,0.0,4.0,89,0.02,,,0.02,,2013-07-13 19:44:00,
2013-07-13 15:52:00,67.0,64.0,-100.00,WSW,241,0.0,4.0,89,0.02,,,0.02,,2013-07-13 19:52:00,
2013-07-13 16:01:00,67.0,64.0,-100.00,WSW,241,0.0,4.0,89,0.02,,,0.02,,2013-07-13 20:01:00,
2013-07-13 16:02:00,68.0,64.0,-100.00,SSW,195,1.0,3.0,86,0.00,,,0.02,,2013-07-13 20:02:00,
2013-07-13 16:33:00,68.0,64.0,-100.00,SSW,195,1.0,3.0,86,0.00,,,0.02,,2013-07-13 20:33:00,
2013-07-13 16:43:00,68.0,64.0,-100.00,SSW,195,1.0,3.0,86,0.00,,,0.02,,2013-07-13 20:43:00,
2013-07-13 16:53:00,68.0,64.0,-100.00,SSW,195,1.0,3.0,86,0.00,,,0.02,,2013-07-13 20:53:00,
2013-07-13 17:22:00,68.0,65.0,-100.00,ENE,57,0.0,3.0,89,0.00,,,0.02,,2013-07-13 21:22:00,
2013-07-13 17:32:00,68.0,65.0,-100.00,ENE,57,0.0,3.0,89,0.00,,,0.02,,2013-07-13 21:32:00,
2013-07-13 17:43:00,68.0,65.0,-100.00,ENE,57,0.0,3.0,89,0.00,,,0.02,,2013-07-13 21:43:00,
2013-07-13 17:53:00,68.0,65.0,-100.00,ENE,57,0.0,3.0,89,0.00,,,0.02,,2013-07-13 21:53:00,
2013-07-13 18:01:00,68.0,65.0,-100.00,ENE,57,0.0,3.0,89,0.00,,,0.02,,2013-07-13 22:01:00,
2013-07-13 18:02:00,69.0,66.0,-100.00,SSW,209,0.0,2.0,91,0.00,,,0.02,,2013-07-13 22:02:00,
2013-07-13 18:32:00,69.0,66.0,-100.00,SSW,209,0.0,2.0,91,0.00,,,0.02,,2013-07-13 22:32:00,
2013-07-13 18:43:00,69.0,66.0,-100.00,SSW,209,0.0,2.0,91,0.00,,,0.02,,2013-07-13 22:43:00,
2013-07-13 18:53:00,69.0,66.0,-100.00,SSW,209,0.0,2.0,91,0.00,,,0.02,,2013-07-13 22:53:00,
2013-07-13 19:22:00,69.0,66.0,-100.00,South,172,0.0,3.0,91,0.00,,,0.02,,2013-07-13 23:22:00,
2013-07-13 19:32:00,69.0,66.0,-100.00,South,172,0.0,3.0,91,0.00,,,0.02,,2013-07-13 23:32:00,
2013-07-13 19:42:00,69.0,66.0,-100.00,South,172,0.0,3.0,91,0.00,,,0.02,,2013-07-13 23:42:00,
2013-07-13 19:53:00,69.0,66.0,-100.00,South,172,0.0,3.0,91,0.00,,,0.02,,2013-07-13 23:53:00,
2013-07-13 20:01:00,69.0,66.0,-100.00,South,172,0.0,3.0,91,0.00,,,0.02,,2013-07-14 00:01:00,
2013-07-13 20:02:00,68.0,66.0,-100.00,ESE,115,0.0,4.0,93,0.00,,,0.02,,2013-07-14 00:02:00,
2013-07-13 20:33:00,68.0,66.0,-100.00,ESE,115,0.0,4.0,93,0.00,,,0.02,,2013-07-14 00:33:00,
2013-07-13 20:42:00,68.0,66.0,-100.00,ESE,115,0.0,4.0,93,0.00,,,0.02,,2013-07-14 00:42:00,
2013-07-13 20:53:00,68.0,66.0,-100.00,ESE,115,0.0,4.0,93,0.00,,,0.02,,2013-07-14 00:53:00,
2013-07-13 21:02:00,67.0,66.0,-100.00,NNE,27,0.0,0.0,95,0.00,,,0.02,,2013-07-14 01:02:00,
2013-07-13 21:22:00,67.0,66.0,-100.00,NNE,27,0.0,0.0,95,0.00,,,0.02,,2013-07-14 01:22:00,
2013-07-13 21:32:00,67.0,66.0,-100.00,NNE,27,0.0,0.0,95,0.00,,,0.02,,2013-07-14 01:32:00,
2013-07-13 21:43:00,67.0,66.0,-100.00,NNE,27,0.0,0.0,95,0.00,,,0.02,,2013-07-14 01:43:00,
2013-07-13 21:52:00,67.0,66.0,-100.00,NNE,27,0.0,0.0,95,0.00,,,0.02,,2013-07-14 01:52:00,
2013-07-13 22:02:00,67.0,66.0,-100.00,SE,144,0.0,0.0,96,0.00,,,0.02,,2013-07-14 02:02:00,
2013-07-13 22:22:00,67.0,66.0,-100.00,SE,144,0.0,0.0,96,0.00,,,0.02,,2013-07-14 02:22:00,
2013-07-13 22:32:00,67.0,66.0,-100.00,SE,144,0.0,0.0,96,0.00,,,0.02,,2013-07-14 02:32:00,
2013-07-13 22:43:00,67.0,66.0,-100.00,SE,144,0.0,0.0,96,0.00,,,0.02,,2013-07-14 02:43:00,
2013-07-13 22:53:00,67.0,66.0,-100.00,SE,144,0.0,0.0,96,0.00,,,0.02,,2013-07-14 02:53:00,
2013-07-13 23:02:00,66.0,65.0,-100.00,SSE,168,0.0,0.0,96,0.00,,,0.02,,2013-07-14 03:02:00,
2013-07-13 23:22:00,66.0,65.0,-100.00,SSE,168,0.0,0.0,96,0.00,,,0.02,,2013-07-14 03:22:00,
2013-07-13 23:32:00,66.0,65.0,-100.00,SSE,168,0.0,0.0,96,0.00,,,0.02,,2013-07-14 03:32:00,
2013-07-13 23:43:00,66.0,65.0,-100.00,SSE,168,0.0,0.0,96,0.00,,,0.02,,2013-07-14 03:43:00,
2013-07-13 23:53:00,66.0,65.0,-100.00,SSE,168,0.0,0.0,96,0.00,,,0.02,,2013-07-14 03:53:00,